(480778) = 2015 GX6 = 2016 PC14

Discovered at Kitt Peak on 2007-04-25 by Spacewatch.

Orbit

Orbit type: Main Belt

Note: WebGL enabled browser required.

epoch2023-02-25.0
epoch JD2460000.5
perihelion date2020-01-20.02866
perihelion JD2458868.52866
argument of perihelion (°)193.18243
ascending node (°)69.53190
inclination (°)14.31582
eccentricity0.1342358
perihelion distance (AU)2.2349385
Tisserand w.r.t. Jupiter3.4
ΔV w.r.t. Earth (km/sec)10.4
semimajor axis (AU)2.5814634
mean anomaly (°)268.99259
mean daily motion (°/day)0.23763200
aphelion distance (AU)2.928
period (years)4.15
P-vector [x]-0.13345091
P-vector [y]-0.88537197
P-vector [z]-0.44531711
Q-vector [x]0.96360076
Q-vector [y]-0.01088656
Q-vector [z]-0.26712368
absolute magnitude17.1
phase slope0.15
uncertainty0
referenceMPO 745323
observations used132
oppositions8
arc length (days)5845
first opposition used2007
last opposition used2023
residual rms (arc-secs)0.74
perturbers coarse indicatorM-v
perturbers precise indicator003Ek
first observation date used2007-04-25.0
last observation date used2023-04-26.0
computer nameMPCLINUX
JD of orbit computation2457669.279930
perihelion JD uncertainty (days)5.3667E-04
argument of perihelion uncertainty (°)1.2604E-04
ascending node uncertainty (°)2.3797E-05
inclination uncertainty (°)3.0592E-06
eccentricity uncertainty 2.2939E-08
perihelion distance uncertainty (AU)8.2431E-08
Minimum Orbit Intersection Distances (in AU)
for orbit epoch: 2460000.5, reference: E2023-HL2
Mercury1.76858
Venus1.50971
Earth1.2216
Mars0.73354
Jupiter2.12822
Saturn6.14905
Uranus15.8491
Neptune27.0278

Observations

134 total observations over interval: 2007 04 25.44205 – 2023 04 26.191610
These data are available for download (format description).

